www.pogodaiklimat.ru

Погода и климат >> Архив погоды >> Аргентина >> Вилла де Мария дель Рио Секо


ПОГОДА в Вилла де Мария дель Рио Секо

  • Прогноз погоды в Вилла де Мария дель Рио Секо
  • Монитор погоды в Вилла де Мария дель Рио Секо

АРХИВ ПОГОДЫ в Вилла де Мария дель Рио Секо

Время (UTC), дата Ветер
(напр.,м/с)
 
Видим.   Явления Облачность Т
(С)
Тd
(С)
f
(%)
Тe
(С)
Тes
(С)
Комфортность P
(гПа)
Po
(гПа)
Тmin
(С)
Tmax
(С)
R
(мм)
R24
(мм)
S
(см)
06 17.02 штиль 0 17 км ясно +15.3 +14.1 93 +15 +15 1014.0 974.9
09 17.02 штиль 0 17 км ясно +14.2 +13.3 94 +14 +14 1013.3 974.2
12 17.02 штиль 0 17 км ясно +21.2 +17.4 79 +25 +32 комфорт 1014.5 975.4 +13.5 +21.8
15 17.02 В 1 17 км 1/1 660 м
[Cu hum]
+27.4 +19.0 60 +33 +52 опасность
солнечного
удара
1013.2 974.2
18 17.02 В 3 17 км 4/4 900 м
[Cu hum]
+30.4 +19.1 51 +36 +45 очень
душно
1011.1 972.2
21 17.02 В 3 17 км 3/3 1020 м
[Cu med, cong]
+30.3 +18.6 50 +35 +37 очень
душно
1008.7 969.8
00 18.02 штиль 0 17 км ясно +25.2 +20.1 73 +31 +31 очень
душно
1009.1 970.4 +21.2 +30.7
03 18.02 штиль 0 17 км ясно +19.3 +17.2 88 +21 +21 комфорт 1010.5 971.7
06 18.02 штиль 0 17 км ясно +17.0 +15.7 92 +17 +17 1009.2 970.6
09 18.02 штиль 0 19 км ясно +15.4 +14.7 96 +15 +15 1009.1 969.7
12 18.02 СВ 1 18 км ясно +25.2 +20.8 77 +32 +37 очень
душно
1009.2 971.0 +15.5 +25.2
15 18.02 СВ 1 19 км 5/5 900 м
[Cu hum]
+30.6 +19.3 51 +36 +47 очень
душно
1008.7 970.2
18 18.02 СВ 1 19 км 4/4 900 м
[Cu hum]
+32.0 +20.0 49 +38 +50 очень
душно
1008.1 969.6
21 18.02 СВ 3 18 км 1/1 900 м
[Cu hum]
+32.2 +18.8 45 +37 +40 очень
душно
1006.3 967.8
00 19.02 штиль 0 19 км ясно +25.4 +20.7 75 +32 +32 очень
душно
1006.8 968.5 +15.6 +32.5
03 19.02 штиль 0 17 км ясно +20.6 +19.1 91 +24 +24 комфорт 1009.1 970.8
06 19.02 штиль 0 18 км ясно +19.0 +17.7 92 +20 +20 1007.4 969.2
09 19.02 штиль 0 18 км ясно +19.5 +17.4 88 +22 +22 комфорт 1007.3 969.0
12 19.02 штиль 0 20 км ясно +27.0 +20.3 67 +33 +40 очень
душно
1007.1 968.9 +17.8 +27.0
15 19.02 В 3 19 км 1/1 1200 м
[Cu hum]
+33.0 +19.8 46 +39 +54 опасность
солнечного
удара
1007.8 969.6
18 19.02 В 4 18 км 1/1 1200 м
[Cu hum]
+34.5 +20.8 45 +42 +51 опасность
перегрева
1006.1 968.0
21 19.02 В 4 17 км 1/1 1200 м
[Cu hum]
+34.0 +18.9 41 +39 +41 очень
душно
1004.6 966.5
00 20.02 штиль 0 17 км ясно +26.5 +21.4 74 +34 +34 очень
душно
1005.7 967.6 +26.6 +35.0
03 20.02 штиль 0 18 км ясно +21.2 +19.7 91 +26 +26 душно 1008.0 969.8
06 20.02 штиль 0 17 км ясно +19.4 +18.5 95 +22 +22 комфорт 1007.9 969.8
09 20.02 штиль 0 17 км ясно +22.2 +19.6 85 +28 +28 душно 1007.4 969.4
12 20.02 СВ 3 17 км ясно +28.5 +20.4 62 +35 +40 очень
душно
1008.1 970.0 +19.1 +28.5
15 20.02 СВ 3 17 км 1/1 700 м
[Cu hum]
+33.6 +20.2 45 +40 +54 опасность
солнечного
удара
1007.7 969.6
18 20.02 С 4 17 км 1/1 1500 м
[Cu hum]
+36.5 +18.6 35 +41 +50 опасность
перегрева
1005.4 967.4
21 20.02 В 3 17 км 1/1 1500 м
[Cu hum]
+35.3 +20.7 43 +42 +45 опасность
перегрева
1003.6 965.8
00 21.02 СВ 1 17 км ясно +29.6 +21.5 62 +38 +38 очень
душно
1004.7 966.9 +28.5 +37.2
03 21.02 С 3 17 км ясно +28.3 +21.0 65 +36 +36 очень
душно
1006.0 968.4
06 21.02 СВ 1 17 км ясно +24.8 +19.5 72 +30 +30 душно 1006.0 968.4
09 21.02 СВ 1 17 км ясно +25.4 +19.4 69 +31 +31 очень
душно
1006.4 968.6
12 21.02 СЗ 4 15 км ясно +28.6 +19.2 57 +34 +37 очень
душно
1007.3 969.4 +24.4 +29.6
15 21.02 С 4 15 км ясно +33.8 +19.4 43 +39 +51 опасность
солнечного
удара
1007.4 969.8
18 21.02 СВ 4 15 км 3/3 750 м
[Cu hum]
+38.8 +20.0 34 +44 +52 опасность
перегрева
1006.1 968.6
21 21.02 С 3 17 км ясно +36.7 +20.2 38 +42 +45 опасность
перегрева
1004.7 967.2
00 22.02 СВ 1 17 км ясно +30.1 +20.3 56 +37 +37 очень
душно
1006.4 968.5 +28.6 +38.7
03 22.02 штиль 0 17 км ясно +22.6 +19.4 82 +29 +29 очень
душно
1008.3 970.2
06 22.02 штиль 0 17 км ясно +20.4 +19.0 92 +24 +24 комфорт 1006.9 969.0
09 22.02 штиль 0 17 км ясно +23.5 +19.7 79 +29 +29 душно 1006.2 968.5
12 22.02 СВ 4 15 км 1/0
[Ac trans]
+28.8 +19.9 59 +35 +38 очень
душно
1007.8 970.0 +20.3 +30.1
15 22.02 С 7 10 км пыльный позёмок ясно +34.6 +19.8 42 +40 +46 очень
душно
1006.8 968.9
18 22.02 С 7 17 км 3/3 1500 м
[Cu hum]
+38.8 +20.8 35 +45 +48 опасность
перегрева
1005.1 967.4
21 22.02 С 3 17 км 1/1 1500 м
[Cu med, cong Cs]
+38.8 +21.5 37 +46 +48 опасность
перегрева
1003.0 965.6
00 23.02 СВ 1 17 км 1/1 1350 м
[Cu med, cong]
+32.5 +24.0 61 +44 +44 опасность
перегрева
1005.0 967.4 +28.8 +40.1
03 23.02 штиль 0 17 км ясно +26.3 +22.3 79 +34 +34 очень
душно
1006.4 968.8
06 23.02 Ю 3 17 км 1/0
[Ac trans]
+25.5 +22.2 82 +33 +33 очень
душно
1006.5 969.0
09 23.02 штиль 0 17 км 10/10 660 м
[Sc]
+24.2 +21.9 87 +31 +31 очень
душно
1005.5 968.0
12 23.02 Ю 3 17 км 10/10 1000 м
[St]
+25.2 +22.0 82 +32 +32 очень
душно
1005.5 967.6 +24.1 +32.5
15 23.02 Ю 4 17 км 8/8 900 м
[St]
+28.0 +22.6 73 +37 +39 очень
душно
1004.3 966.2
18 23.02 В 4 17 км 8/8 1000 м
[St]
+30.4 +23.3 66 +41 +43 опасность
перегрева
1001.8 964.0
21 23.02 ЮВ 3 17 км 1/0
[Ac cuf Cs]
+31.6 +23.8 63 +43 +45 опасность
перегрева
999.6 961.8
00 24.02 ЮВ 3 17 км 1/0
[Ac cuf]
+27.0 +23.3 80 +36 +36 очень
душно
1001.6 963.6 +25.2 +32.0
03 24.02 Ю 3 17 км 10/10 1000 м
[St]
+24.8 +22.5 87 +32 +32 очень
душно
1003.0 964.9

 

Местоположение метеостанции Вилла де Мария дель Рио Секо (Аргентина): широта -29.90 долгота -63.68 высота над уровнем моря 341 м.

В архиве по умолчанию представлена погода в Вилла де Мария дель Рио Секо за последнюю неделю. Архивные данные за месяц целиком и за предыдущие месяцы, начиная с января 2011 года, Вы можете получить, выбрав интересующий диапазон дат из раскрывающегося списка и нажав кнопку "Ввод!".


*Определитесь, кто Вы:
робот инопланетянин человек

Внимание! Время в таблицах - всемирное. Для получения местного времени необходимо прибавить поправку, которая равна -3 ч.

Смотрите также архив погоды в соседних городах и на ближайших метеорологических станциях:

Погода в Кордове (Аргентина) (165 км)
Погода в Сересе (Аргентина) (167 км)
Погода в Пиларе (Аргентина) (197 км)
Погода в Сантьяго-дель-Эстеро (Аргентина) (246 км)
Погода в Сан-Фернандо-дель-Валье-де-Катамарке (Аргентина) (248 км)
Погода в Чамикале (Аргентина) (255 км)
Погода в Вилла Долорес (Аргентина) (267 км)
Погода в Ла-Риохе (Аргентина) (308 км)
Погода в Санта-Фе (Аргентина) (339 км)
Погода в Маркос Хуарес (Аргентина) (344 км)

Пояснения к столбцам:

Ветер - указаны скорость ветра в м/с - средняя за 10 мин, порывы в срок и между сроками (в фигурных скобках) и направление, откуда дует ветер: С - северный, СВ - северо-восточный, В - восточный, ЮВ - юго-восточный, Ю - южный, ЮЗ - юго-западный, З - западный, СЗ - северо-западный.
Видимость - горизонтальная дальность видимости в метрах или километрах. При видимости от 1 до 10 км при отсутствии осадков обычно наблюдается дымка, при ухудшении видимости до 1 км и менее - туман. В сухую погоду видимость может ухудшаться дымом, пылью или мглою.
Явления - указаны атмосферные явления, наблюдавшиеся в срок или в последний час перед сроком; фигурными скобками обозначены явления, наблюдавшиеся между сроками (за 1-3 часа до срока); квадратными скобками обозначены град или гололедные отложения с указанием их диаметра в мм.
Облачность - указаны через наклонную черту общая и нижняя облачность в баллах и высота нижней границы облаков в метрах; квадратными скобками обозначены формы облаков: Ci - перистые, Cs - перисто-слоистые, Cc - перисто-кучевые, Ac - высококучевые, As - высокослоистые, Sc - слоисто-кучевые, Ns - слоисто-дождевые, Cu - кучевые, Cb - кучево-дождевые. Подробнее классификацию облаков см. в Атласе облаков (PDF).
T - Температура воздуха - температура, измеренная на высоте 2 м над землей.
Td - Температура точки росы - температура, при понижении до которой содержащийся в воздухе водяной пар достигнет насыщения.
f - Относительная влажность воздуха - влажноcть воздуха, измеренная на высоте 2 м над землей.
Te - Эффективная температура - температура, которую ощущает одетый по сезону человек в тени. Характеристика душности погоды. При расчете учитывается влияние влажности воздуха и скорости ветра на теплоощущения человека.
Tes - Эффективная температура на солнце - температура, которую ощущает человек, с поправкой на солнечный нагрев. Характеристика знойности погоды. Зависит от высоты солнца над горизонтом, облачности и скорости ветра. Ночью, в пасмурную погоду, а также при ветре 12 м/с и более поправка равна нулю.
P - Атмосферное давление - приведенное к уровню моря атмосферное давление.
Po - Атмосферное давление - измеренное на уровне метеостанции атмосферное давление.
Tmin - Минимальная температура - минимум температуры воздуха на высоте 2 м над землей.
Tmax - Максимальная температура - максимум температуры воздуха на высоте 2 м над землей.
R - Количество осадков - Количество выпавших осадков за период времени, мм. При наведении курсора мыши на число - период времени, за который выпало указанное количество осадков.
R24 - Количество осадков - Количество выпавших осадков за 24 часа, мм.
S - Снежный покров - Высота снежного покрова, см. При наведении курсора мыши на число - состояние снежного покрова и степень покрытия местности в баллах.